This is the latest recevied weather packets stored in our database for station/object K7KAZ. If no packets are shown the sender has not sent any weather packets the latest 10 day(s).
| Time | Temp. | Humidity | Pressure | Rain* | Wind** | Luminosity | Snow |
|---|---|---|---|---|---|---|---|
| 1777393761 | 21.11° C | 27% | 1019.7 hPa | 0 mm | - | 640 W/m² | - |
| 1777393461 | 21.11° C | 27% | 1019.8 hPa | 0 mm | - | 564 W/m² | - |
| 1777393157 | 21.11° C | 28% | 1019.4 hPa | 0 mm | - | 632 W/m² | - |
| 1777392854 | 21.11° C | 28% | 1019.6 hPa | 0 mm | - | 590 W/m² | - |
| 1777392549 | 20.56° C | 29% | 1019.6 hPa | 0 mm | - | 473 W/m² | - |
| 1777392245 | 21.11° C | 29% | 1019.7 hPa | 0 mm | - | 557 W/m² | - |
| 1777391941 | 20.56° C | 29% | 1019.8 hPa | 0 mm | - | 509 W/m² | - |
| 1777391636 | 21.11° C | 28% | 1019.7 hPa | 0 mm | - | 542 W/m² | - |
| 1777391332 | 20° C | 30% | 1019.7 hPa | 0 mm | - | 473 W/m² | - |
| 1777391029 | 20.56° C | 29% | 1019.9 hPa | 0 mm | - | 454 W/m² | - |
| 1777390725 | 19.44° C | 30% | 1019.6 hPa | 0 mm | - | 399 W/m² | - |
| 1777390422 | 20° C | 30% | 1019.8 hPa | 0 mm | - | 377 W/m² | - |
| 1777390118 | 19.44° C | 30% | 1019.7 hPa | 0 mm | - | 368 W/m² | - |
| 1777389814 | 18.89° C | 30% | 1019.6 hPa | 0 mm | - | 324 W/m² | - |
| 1777389512 | 18.89° C | 31% | 1019.6 hPa | 0 mm | - | 308 W/m² | - |
| 1777389209 | 18.89° C | 32% | 1019.8 hPa | 0 mm | - | 291 W/m² | - |
| 1777388907 | 18.89° C | 32% | 1019.6 hPa | 0 mm | - | 270 W/m² | - |
| 1777388603 | 18.89° C | 32% | 1019.4 hPa | 0 mm | - | 246 W/m² | - |
| 1777388299 | 18.89° C | 31% | 1019.3 hPa | 0 mm | - | 181 W/m² | - |
| 1777387993 | 18.33° C | 32% | 1019.6 hPa | 0 mm | - | 259 W/m² | - |
| 1777387690 | 17.78° C | 32% | 1019.4 hPa | 0 mm | - | 226 W/m² | - |
| 1777387387 | 18.33° C | 32% | 1019.2 hPa | 0 mm | - | 194 W/m² | - |
| 1777387081 | 18.89° C | 32% | 1019.2 hPa | 0 mm | - | 187 W/m² | - |
| 1777386777 | 18.89° C | 32% | 1019.1 hPa | 0 mm | - | 194 W/m² | - |
| 1777386474 | 19.44° C | 32% | 1019.1 hPa | 0 mm | - | 168 W/m² | - |
* Rain latest hour (hover to see other rain measurements)
** Current wind speed in m/s (hover to see current wind gust speed)